TimeADT,TemperatureF,Dew PointF,Humidity,Sea Level PressureIn,VisibilityMPH,Wind Direction,Wind SpeedMPH,Gust SpeedMPH,PrecipitationIn,Events,Conditions,WindDirDegrees,DateUTC
12:00 AM,57.2,-9999,N/A,29.67,9.0,SE,8.1,-,N/A,,Overcast,140,2012-10-11 03:00:00
12:29 AM,57.2,-9999,N/A,29.62,9.0,ESE,10.4,-,N/A,,Overcast,120,2012-10-11 03:29:00
12:48 AM,57.2,-9999,N/A,29.61,9.0,ESE,12.7,-,N/A,Rain,Light Rain,120,2012-10-11 03:48:00
12:56 AM,57.2,-9999,N/A,29.60,5.0,SE,10.4,-,N/A,Rain,Light Rain,130,2012-10-11 03:56:00
1:00 AM,57.2,-9999,N/A,29.59,3.0,SE,10.4,-,N/A,Rain,Rain,130,2012-10-11 04:00:00
1:17 AM,57.2,-9999,N/A,29.56,4.0,ESE,9.2,17.3,N/A,Rain,Light Rain,120,2012-10-11 04:17:00
1:24 AM,57.2,-9999,N/A,29.55,3.0,ESE,12.7,-,N/A,Rain,Heavy Rain,120,2012-10-11 04:24:00
1:25 AM,57.2,-9999,N/A,29.55,2.5,ESE,13.8,-,N/A,Rain,Heavy Rain,120,2012-10-11 04:25:00
1:28 AM,57.2,-9999,N/A,29.54,1.8,ESE,16.1,-,N/A,Rain,Heavy Rain,120,2012-10-11 04:28:00
1:33 AM,57.2,-9999,N/A,29.53,2.0,ESE,11.5,20.7,N/A,Rain,Light Rain,120,2012-10-11 04:33:00
1:35 AM,57.2,-9999,N/A,29.53,2.2,ESE,10.4,20.7,N/A,Rain,Light Rain,120,2012-10-11 04:35:00
1:36 AM,57.2,-9999,N/A,29.53,2.5,SE,11.5,20.7,N/A,Rain,Light Rain,130,2012-10-11 04:36:00
1:37 AM,57.2,-9999,N/A,29.53,3.0,SE,12.7,20.7,N/A,Rain,Light Rain,140,2012-10-11 04:37:00
1:39 AM,57.2,-9999,N/A,29.53,6.0,SE,10.4,17.3,N/A,Rain,Light Rain,140,2012-10-11 04:39:00
1:52 AM,57.2,-9999,N/A,29.52,5.0,SE,9.2,-,N/A,Rain,Rain,140,2012-10-11 04:52:00
1:54 AM,57.2,-9999,N/A,29.52,4.0,SE,10.4,-,N/A,,Overcast,140,2012-10-11 04:54:00
1:55 AM,57.2,-9999,N/A,29.52,3.0,SE,10.4,-,N/A,Rain,Rain,140,2012-10-11 04:55:00
1:56 AM,57.2,-9999,N/A,29.52,3.0,SE,10.4,-,N/A,Rain,Rain,140,2012-10-11 04:56:00
1:57 AM,57.2,-9999,N/A,29.52,3.0,SE,10.4,-,N/A,Rain,Light Rain,140,2012-10-11 04:57:00
1:59 AM,57.2,-9999,N/A,29.52,3.0,SE,10.4,-,N/A,Rain,Light Rain,140,2012-10-11 04:59:00
2:00 AM,57.2,-9999,N/A,29.51,3.0,SE,10.4,-,N/A,Rain,Light Rain,140,2012-10-11 05:00:00
2:01 AM,57.2,-9999,N/A,29.51,4.0,SE,9.2,-,N/A,Rain,Light Rain,140,2012-10-11 05:01:00
2:02 AM,57.2,-9999,N/A,29.51,4.0,SSE,9.2,-,N/A,Rain,Light Rain,150,2012-10-11 05:02:00
2:05 AM,57.2,-9999,N/A,29.51,6.0,SE,9.2,-,N/A,Rain,Light Rain,140,2012-10-11 05:05:00
2:24 AM,57.2,-9999,N/A,29.49,5.0,SSE,12.7,21.9,N/A,Rain,Rain,160,2012-10-11 05:24:00
2:40 AM,59.0,-9999,N/A,29.48,5.0,SSE,12.7,18.4,N/A,Rain,Light Rain,160,2012-10-11 05:40:00
2:52 AM,59.0,-9999,N/A,29.48,3.0,South,13.8,20.7,N/A,Rain,Light Rain,180,2012-10-11 05:52:00
3:00 AM,58,,,29.49,4,South,13.8,,,,Overcast,190,2012-10-11 06:00:00
3:00 AM,59.0,-9999,N/A,29.49,4.0,SSW,12.7,20.7,N/A,Rain,Light Rain,210,2012-10-11 06:00:00
3:01 AM,59.0,-9999,N/A,29.49,4.0,SW,11.5,20.7,N/A,Rain,Light Rain,220,2012-10-11 06:01:00
3:08 AM,59.0,-9999,N/A,29.49,2.2,South,10.4,18.4,N/A,Rain,Light Rain,190,2012-10-11 06:08:00
3:11 AM,59.0,-9999,N/A,29.48,1.8,South,12.7,-,N/A,Rain,Light Rain,180,2012-10-11 06:11:00
3:15 AM,59.0,-9999,N/A,29.47,2.0,SSE,13.8,-,N/A,Rain,Light Rain,160,2012-10-11 06:15:00
3:18 AM,59.0,-9999,N/A,29.47,3.0,SSE,10.4,18.4,N/A,Rain,Light Rain,160,2012-10-11 06:18:00
3:20 AM,59.0,-9999,N/A,29.47,5.0,South,11.5,18.4,N/A,Rain,Light Rain,170,2012-10-11 06:20:00
3:21 AM,59.0,-9999,N/A,29.47,7.0,SSE,11.5,18.4,N/A,Rain,Light Rain,160,2012-10-11 06:21:00
3:22 AM,59.0,-9999,N/A,29.47,9.0,South,10.4,18.4,N/A,Rain,Light Rain,170,2012-10-11 06:22:00
3:24 AM,59.0,-9999,N/A,29.47,9.0,South,10.4,18.4,N/A,,Overcast,170,2012-10-11 06:24:00
3:33 AM,59.0,-9999,N/A,29.47,9.0,South,10.4,-,N/A,,Overcast,180,2012-10-11 06:33:00
3:43 AM,59.0,-9999,N/A,29.46,5.0,South,8.1,-,N/A,,Haze,190,2012-10-11 06:43:00
3:46 AM,59.0,-9999,N/A,29.46,4.0,SSW,8.1,-,N/A,Rain,Light Rain,210,2012-10-11 06:46:00
3:54 AM,55.4,55.4,100,29.48,2.5,WNW,16.1,24.2,N/A,Rain,Light Rain,300,2012-10-11 06:54:00
4:00 AM,53.6,-9999,N/A,29.49,2.2,WNW,12.7,24.2,N/A,Rain,Light Rain,300,2012-10-11 07:00:00
4:05 AM,51.8,-9999,N/A,29.49,3.0,West,12.7,20.7,N/A,Rain,Light Rain,280,2012-10-11 07:05:00
4:09 AM,51.8,-9999,N/A,29.49,6.0,West,12.7,20.7,N/A,Rain,Light Rain,280,2012-10-11 07:09:00
4:32 AM,51.8,-9999,N/A,29.50,9.0,West,13.8,24.2,N/A,,Overcast,280,2012-10-11 07:32:00
5:00 AM,50.0,-9999,N/A,29.51,9.0,West,11.5,23.0,N/A,,Overcast,280,2012-10-11 08:00:00
5:12 AM,50.0,50.0,100,29.52,9.0,West,9.2,20.7,N/A,,Overcast,280,2012-10-11 08:12:00
6:00 AM,48.2,44.6,87,29.53,9.0,West,6.9,18.4,N/A,,Overcast,280,2012-10-11 09:00:00
7:00 AM,44.6,-9999,N/A,29.55,9.0,SW,8.1,-,N/A,,Partly Cloudy,230,2012-10-11 10:00:00
8:00 AM,46.4,42.8,87,29.58,9.0,WSW,13.8,20.7,N/A,,Overcast,250,2012-10-11 11:00:00
9:00 AM,45,40,75,29.64,10,West,13.8,,,,,260,2012-10-11 12:00:00
9:00 AM,44.6,39.2,81,29.64,9.0,West,12.7,27.6,N/A,,Mostly Cloudy,260,2012-10-11 12:00:00
10:00 AM,48.2,39.2,71,29.67,9.0,West,10.4,23.0,N/A,,Scattered Clouds,270,2012-10-11 13:00:00
11:00 AM,50.0,39.2,66,29.69,9.0,West,10.4,24.2,N/A,,Mostly Cloudy,270,2012-10-11 14:00:00
11:48 AM,51.8,37.4,58,29.70,9.0,WSW,21.9,29.9,N/A,,Mostly Cloudy,240,2012-10-11 14:48:00
12:00 PM,53.6,37.4,54,29.70,9.0,WSW,12.7,32.2,N/A,,Mostly Cloudy,250,2012-10-11 15:00:00
12:08 PM,50.0,39.2,66,29.72,9.0,WSW,18.4,31.1,N/A,Rain,Light Rain,250,2012-10-11 15:08:00
12:31 PM,48.2,39.2,71,29.73,9.0,West,12.7,25.3,N/A,,Mostly Cloudy,260,2012-10-11 15:31:00
1:00 PM,51.8,33.8,50,29.73,9.0,West,18.4,34.5,N/A,,Partly Cloudy,260,2012-10-11 16:00:00
2:00 PM,51.8,30.2,44,29.75,9.0,West,23.0,36.8,N/A,,Scattered Clouds,260,2012-10-11 17:00:00
3:00 PM,52,29,28,29.80,10,West,19.6,,,,,270,2012-10-11 18:00:00
3:00 PM,51.8,28.4,41,29.80,9.0,West,21.9,33.4,N/A,,Mostly Cloudy,260,2012-10-11 18:00:00
4:00 PM,51.8,26.6,38,29.83,9.0,West,19.6,32.2,N/A,,Scattered Clouds,270,2012-10-11 19:00:00
5:00 PM,50.0,28.4,43,29.87,9.0,WSW,17.3,27.6,N/A,,Scattered Clouds,240,2012-10-11 20:00:00
6:00 PM,50.0,24.8,37,29.92,9.0,West,20.7,26.5,N/A,,Scattered Clouds,270,2012-10-11 21:00:00
7:00 PM,46.4,26.6,46,29.95,9.0,WSW,8.1,-,N/A,,Clear,250,2012-10-11 22:00:00
8:00 PM,41.0,28.4,61,29.97,9.0,WSW,5.8,-,N/A,,Clear,240,2012-10-11 23:00:00
9:00 PM,41,28,48,29.99,10,WSW,8.1,,,,,240,2012-10-12 00:00:00
9:00 PM,41.0,28.4,61,29.99,9.0,WSW,9.2,-,N/A,,Clear,240,2012-10-12 00:00:00
10:00 PM,37.4,28.4,70,30.00,9.0,SW,6.9,-,N/A,,Clear,230,2012-10-12 01:00:00
11:00 PM,33.8,28.4,81,30.01,9.0,South,5.8,-,N/A,,Clear,190,2012-10-12 02:00:00